SCP
0 0 0 0 0 0 0 0 0 0 0 -0 0 0 0 0 0 0 0 0 0 0 0 0 0 0 0 0 0 0 0 0 0 0 0 0 0 0 0 0 0 0 0 0
0 0 0 0 -0 0 -0 -0 -0 0 0 0 0 -0 0 0 0 0 0 0 0 0 0 0 0 0 0 0 0 0 0 0 0 0 0 0 0 0 0 0 0 0 0 0
0 0 0 0 0 0 0 0 0 0 0 0 0 0 0 0 0 0 0 0 0 0 0 0 0 0 0 0 0 0 0 0 0 0 0 0 0 0 0 0 0 0 0 0
0 0 0 0 0 0 0 0 0 0 0 0 0 0 0 0 0 0 0 0 0 0 0 0 0 0 0 0 0 0 0 0 0 0 0 0 0 0 0 0 0 0 0 0
0 0 0 0 0 0 0 0 0 0 0 0 0 0 0 0 0 0 0 0 0 0 0 0 0 0 0 0 0 0 0 0 0 0 0 0 0 0 0 0 0 0 0 0
0 0 0 0 0 0 0 0 0 0 0 0 0 0 0 0 0 0 0 0 0 0 0 0 0 0 0 0 0 0 0 0 0 0 0 0 0 0 0 0 0 0 0 0
0 0 0 0 0 0 0 0 0 0 0 0 0 0 0 0 0 0 0 0 0 0 0 0 0 0 0 0 0 0 0 0 0 0 0 0 0 0 0 0 0 0 0 0
0 0 0 0 0 0 0 0 0 0 0 0 0 0 0 0 0 0 0 0 0 0 0 0 0 0 0 0 0 0 0 0 0 0 0 0 0 0 0 0 0 0 0 0
0 0 0 0 0 0 0 0 0 0 0 0 0 0 0 0 0 0 0 0 0 0 0 0 0 0 0 0 0 0 0 0 0 0 0 0 0 0 0 0 0 0 0 0
0 0 0 0 0 0 0 0 0 0 0 0 0 0 0 0 0 0 0 0 0 0 0 0 0 0 0 0 0 0 0 0 0 0 0 0 0 0 0 0 0 0 0 0
0 0 0 0 0 0 0 0 0 0 0 0 0 0 0 0 0 0 0 0 0 0 0 0 0 0 -0 0 0 0 0 0 0 0 -0 0 0 0 0 0 0 0 0 0
0 0 0 0 0 0 0 0 0 0 0 0 0 0 0 0 0 0 0 0 0 0 0 0 0 0 -0 -0 -0 -0 0 0 0 0 0 0 0 0 0 0 0 0 0 0
0 0 0 0 0 0 0 0 0 0 0 0 0 0 0 0 0 0 0 0 0 0 0 0 0 -0 -0 -0 -0 -0 0 0 0 0 0 0 0 0 0 0 0 0 0 0
-0 -0 0 0 0 0 0 0 0 0 0 0 0 0 0 0 0 0 0 0 0 0 0 0 -0 -0 -0 -0 -0 -0 0 -0 0 0 0 0 0 0 -0 0 0 0 0 0
0 0 0 0 0 0 0 0 0 0 0 0 0 0 0 0 0 0 0 0 0 0 0 0 -0 -0 -0 -0 -0 -0 0 0 -0 0 -0 0 0 0 0 0 0 0 0 0
0 0 0 0 0 0 0 0 0 0 0 0 0 0 0 0 0 0 0 0 0 0 -0 -0 -0 -0 -0 -0 -0 0 0 0 0 -0 -0 -0 -0 -0 -0 0 0 0 0 0
0 0 0 0 0 0 0 0 0 0 0 0 0 0 0 0 0 0 0 0 0 0 -0 -0 -0 -0 -0 -0 -0 0 0 0 0 0 -0 -0 -0 -0 -0 -0 0 0 -0 -0
0 0 0 0 0 0 0 0 0 0 0 0 0 0 -0 0 0 0 0 0 0 -0 -0 -0 -0 -0 -0 -0 -0 0 0 0 0 0 0 0 -0 -0 -0 -0 -0 -0 -0 -0
0 0 0 0 0 0 0 0 0 0 0 0 0 0 -0 0 0 0 0 -0 -0 0 -0 -0 -0 -0 -0 -0 -0 0 0 0 0 0 0 0 0 -0 -0 0 -0 -0 -0 -0
0 0 0 0 0 0 0 0 0 0 0 0 0 0 -0 -0 -0 -0 -0 0 -0 0 0 -0 -0 -0 -0 -0 -0 0 0 0 0 0 0 0 0 0 0 -0 -0 -0 -0 -0
0 0 0 0 0 0 0 0 0 0 0 0 0 -0 -0 -0 -0 0 0 0 -0 -0 -0 -0 -0 0 0 0 0 0 0 0 0 0 0 0 0 0 0 0 -0 -0 -0 -0
0 0 0 0 0 0 0 0 0 0 0 0 0 -0 -0 0 0 -0 -0 0 0 -0 0 0 0 0 0 0 0 0 0 0 0 0 0 0 0 0 0 0 0 -0 -0 -0
0 0 0 0 0 0 0 0 -0 -0 -0 0 0 0 -0 -0 -0 -0 0 0 0 0 0 0 0 0 0 0 0 0 0 0 0 0 0 0 0 0 0 0 0 0 0 0
-0 -0 -0 -0 0 -0 -0 -0 -0 0 0 0 0 -0 0 0 0 0 -0 -0 -0 0 0 -0 -0 0 -0 0 0 0 0 0 0 0 0 0 0 0 0 0 0 0 0 0
-0 0 0 0 0 0 -0 -0 -0 -0 -0 0 0 0 -0 -0 0 0 0 0 -0 0 -0 -0 -0 -0 0 0 -0 -0 -0 0 0 0 0 0 0 0 0 0 0 0 0 0
0 0 0 0 0 -0 -0 -0 0 0 0 -0 0 0 0 0 -0 -0 -0 -0 -0 -0 -0 -0 0 -0 -0 -0 -0 -0 -0 -0 0 0 0 0 0 0 0 0 0 0 0 0
-0 -0 -0 -0 0 0 0 0 0 -0 -0 0 -0 -0 -0 -0 0 0 0 -0 -0 -0 -0 -0 0 -0 -0 -0 -0 -0 -0 -0 -0 -0 -0 -0 0 0 0 0 0 0 0 0
Wind_Speed_500mb
18 8 9 21 31 22 27 25 20 10 29 33 28 12 13 24 13 15 12 7 10 11 13 16 17 19 22 24 27 31 34 37 39 41 42 44 45 45 49 52 55 53 55 57
17 17 19 18 25 33 29 26 26 17 18 24 8 31 12 11 6 5 8 6 10 14 18 20 23 26 28 31 33 35 36 39 40 41 41 42 45 47 48 53 56 54 53 56
21 21 16 8 18 20 12 9 8 14 6 27 22 6 10 2 3 4 12 7 13 18 20 23 25 27 31 33 34 35 36 36 36 37 37 40 43 46 47 53 56 58 61 62
16 22 19 16 5 6 21 11 7 14 9 8 13 14 14 18 19 10 12 16 19 21 22 24 27 29 31 33 33 33 34 32 32 34 37 40 42 46 52 54 54 58 62 63
14 18 23 16 11 13 25 20 13 18 16 15 15 24 21 14 10 11 16 20 22 24 28 31 31 31 33 34 32 31 30 29 30 33 36 41 46 50 52 50 49 51 56 62
17 15 10 26 15 22 27 16 20 19 16 13 11 15 7 11 15 17 19 21 25 29 30 29 28 31 33 31 29 27 27 29 29 34 38 40 41 43 43 46 50 52 58 57
17 8 14 18 13 6 21 10 21 27 20 13 15 13 10 16 19 20 22 25 28 28 28 28 30 28 28 27 25 27 26 29 33 34 36 35 42 47 50 53 57 60 68 64
12 7 8 18 16 3 21 27 25 25 17 13 14 14 17 20 22 25 28 30 29 29 29 29 25 25 26 26 21 23 29 32 34 35 33 39 42 47 50 54 55 70 55 55
3 10 28 41 43 37 33 29 23 20 19 18 18 21 22 23 23 25 26 27 27 27 28 25 26 25 24 20 23 27 29 31 34 35 34 32 41 53 53 43 47 57 62 61
19 24 28 42 42 36 31 28 24 23 23 23 24 28 29 26 25 25 26 25 28 28 27 28 26 23 22 24 25 27 29 30 33 28 34 32 40 46 48 44 47 49 56 57
28 28 35 34 34 33 31 27 26 24 23 23 24 28 31 27 26 27 27 28 28 29 28 30 25 23 23 23 25 26 28 30 32 27 27 33 45 48 44 37 39 48 51 51
12 38 23 34 32 29 29 28 25 23 22 21 24 28 29 32 29 30 32 32 27 28 29 27 26 24 26 26 24 24 26 28 28 28 27 32 45 46 37 38 37 46 43 42
35 39 44 41 34 29 30 27 25 25 23 22 23 27 25 27 37 36 36 32 28 31 31 30 28 27 31 30 26 23 24 25 26 24 26 30 40 41 52 44 46 52 44 43
50 51 44 40 38 32 30 26 24 22 21 22 23 24 27 30 34 40 41 39 37 39 37 37 33 35 35 35 34 25 19 19 22 24 23 27 32 34 36 43 49 57 57 51
34 34 42 42 36 31 24 21 21 21 20 21 21 23 29 34 34 33 37 38 41 43 41 43 40 40 39 37 36 32 22 21 23 24 20 25 31 30 35 38 46 49 60 63
40 40 40 36 31 26 22 20 20 19 20 21 21 23 25 27 29 32 36 36 39 40 40 42 42 41 40 37 32 44 28 25 23 23 21 23 25 28 28 38 42 43 41 56
39 37 34 32 29 24 21 20 19 19 19 21 22 23 23 26 27 32 35 34 31 32 37 42 44 41 41 36 39 40 40 29 29 25 24 22 22 25 28 29 35 43 41 35
22 26 26 28 28 25 21 20 19 19 20 19 20 24 24 25 28 27 29 33 30 30 40 43 45 42 43 37 39 35 47 46 40 35 36 29 25 22 26 28 27 31 34 33
26 27 29 28 25 23 21 20 19 19 18 18 21 24 24 22 25 26 23 33 38 39 43 43 43 41 43 43 38 34 39 43 39 44 48 40 35 30 28 28 29 30 30 29
31 31 30 29 26 23 22 20 18 19 20 22 22 23 25 24 27 28 25 31 37 35 36 41 39 39 43 46 45 38 38 37 40 40 40 51 50 43 42 37 33 29 27 28
30 28 28 27 26 23 21 18 15 16 16 23 27 25 30 27 27 31 29 25 36 37 36 38 39 42 44 44 45 43 41 40 41 44 44 44 50 54 50 51 45 40 34 30
27 25 25 25 23 22 20 18 16 15 15 17 23 24 24 31 28 22 34 32 30 39 41 40 39 44 49 45 43 50 46 43 42 44 48 45 45 48 49 61 58 53 44 39
25 24 22 21 20 20 19 16 15 15 18 18 20 28 27 29 29 24 24 37 32 40 34 46 40 44 43 42 44 46 51 51 46 47 47 47 45 45 46 50 57 58 57 53
24 22 22 20 19 16 14 14 15 15 16 19 22 23 23 21 21 28 25 35 36 37 38 52 51 46 40 34 42 43 46 48 51 49 49 49 47 46 46 48 47 53 54 57
23 21 19 16 14 12 11 8 10 11 13 16 18 19 21 22 28 29 28 31 34 30 27 40 43 44 38 38 37 39 42 47 49 48 48 52 52 51 51 51 48 50 49 52
19 17 15 13 13 10 7 7 8 9 9 11 15 17 18 19 19 23 24 33 26 29 28 30 37 35 35 37 37 38 40 45 52 52 49 49 51 53 57 57 56 54 52 53
19 19 17 15 12 9 9 10 10 10 10 11 11 14 16 16 19 21 26 25 26 27 28 29 32 35 36 36 38 38 38 45 50 52 51 49 53 54 56 57 60 59 57 58
Wind_Direction_500mb
129 203 136 266 201 212 231 229 244 300 189 206 201 193 195 134 153 138 134 90 56 31 14 360 351 344 342 334 332 326 321 317 312 311 310 308 302 295 291 290 289 287 283 279
171 152 107 271 203 181 215 202 217 137 129 147 186 199 159 160 153 202 157 63 2 351 345 339 337 334 328 326 322 318 315 311 311 308 305 296 296 298 294 291 285 284 285 285
182 198 194 229 181 191 195 229 236 228 12 133 138 193 170 173 95 355 49 358 333 330 329 327 325 321 317 312 313 313 309 306 303 301 299 299 299 297 295 290 293 293 291 290
152 151 196 70 37 339 172 138 206 87 65 81 108 85 70 59 68 49 341 328 324 323 319 315 311 311 309 309 309 308 306 303 303 307 305 302 303 300 299 299 299 299 296 293
151 171 102 129 129 159 156 113 44 102 111 115 118 121 102 79 30 347 331 325 322 318 315 313 313 309 307 310 309 307 307 308 310 306 308 310 305 303 303 304 300 299 297 292
148 179 158 107 87 56 114 115 121 97 75 39 267 163 79 352 340 331 327 323 319 313 314 311 308 308 309 308 309 305 301 297 309 311 306 305 303 305 303 300 299 301 305 297
131 172 97 102 109 188 213 137 79 90 73 56 51 79 349 338 333 330 327 324 320 318 314 309 312 311 307 303 297 291 300 311 301 301 302 306 315 326 312 307 313 304 305 298
147 137 111 143 143 22 124 115 100 84 65 63 44 25 358 344 336 332 329 328 325 322 316 317 318 311 302 297 300 320 307 305 308 311 310 327 322 314 318 306 297 311 314 306
80 88 80 86 102 100 102 102 90 85 64 50 44 21 4 349 342 338 335 331 329 324 321 318 312 309 309 320 322 307 315 314 315 318 325 320 316 314 329 319 312 308 318 320
104 104 101 101 102 105 103 99 90 78 63 47 37 19 8 358 349 345 343 341 335 329 323 321 321 321 317 310 311 313 314 316 324 335 339 321 321 331 335 330 326 325 319 316
95 120 109 103 107 110 104 97 89 79 66 50 36 26 17 8 2 354 348 344 343 339 335 332 336 335 329 322 318 314 312 322 331 331 321 325 338 360 355 346 336 326 326 324
160 167 124 129 120 115 106 96 84 78 65 49 37 30 26 21 11 4 355 348 349 348 342 346 346 343 328 325 318 314 317 323 326 329 322 329 340 3 17 12 7 357 345 350
117 135 127 130 124 117 109 99 90 79 66 53 43 34 30 26 20 16 10 7 7 359 5 5 356 354 348 347 339 327 319 318 325 338 327 329 344 352 356 5 13 12 16 2
120 125 128 136 127 122 111 101 91 81 68 58 49 40 33 28 22 16 13 15 17 17 15 11 10 5 0 358 351 345 333 321 323 328 327 327 348 346 351 5 359 18 21 16
136 131 133 131 130 125 114 107 93 78 65 54 43 33 30 28 24 21 14 15 20 14 12 10 20 8 6 359 1 1 351 340 331 339 336 338 344 331 349 359 3 10 11 15
129 127 132 134 132 128 117 105 93 77 60 48 38 28 28 30 20 23 21 19 22 10 12 10 14 10 4 6 9 7 3 2 340 337 349 349 343 343 343 346 353 355 360 11
135 139 135 133 132 120 107 96 88 79 61 47 37 23 31 32 26 23 18 19 24 14 16 13 12 12 12 21 32 3 13 11 8 357 349 352 353 348 345 346 344 352 358 15
130 135 138 137 130 120 105 91 85 74 61 52 32 26 26 24 24 25 17 13 23 20 18 15 14 17 16 28 38 5 12 23 17 9 9 5 1 354 355 355 350 348 347 355
132 128 129 129 125 117 103 93 86 75 64 44 28 28 27 29 30 31 29 9 20 20 15 14 15 20 20 26 35 16 20 12 13 17 15 16 16 10 1 357 358 354 351 349
120 123 123 121 116 110 101 95 91 78 62 43 33 35 36 41 41 39 46 11 21 25 16 11 19 24 21 26 28 22 20 18 17 19 14 20 24 20 14 9 2 356 351 347
130 130 124 118 111 102 98 96 92 76 56 40 37 41 38 48 50 27 37 30 20 30 19 17 24 31 27 32 27 26 22 22 20 18 17 15 12 21 18 18 14 6 357 352
134 125 122 119 113 103 96 93 88 78 65 51 41 51 41 46 64 41 11 31 26 42 19 21 32 43 29 26 30 31 25 24 22 22 20 18 15 11 9 16 21 18 11 3
131 127 125 122 117 110 99 91 84 77 71 63 50 40 51 28 38 42 31 30 38 44 26 19 39 55 41 12 26 28 27 27 23 20 20 19 13 12 10 6 10 16 17 14
131 129 123 125 120 112 94 85 79 71 68 56 53 47 41 52 31 36 45 37 49 39 7 11 26 40 38 26 19 22 21 24 28 25 19 14 14 9 10 10 5 8 10 9
125 127 129 130 123 115 112 103 83 75 63 56 52 46 45 30 35 27 41 46 23 40 26 7 24 24 30 24 23 18 16 17 19 19 19 18 14 11 9 9 5 7 6 2
127 122 119 114 119 118 94 82 77 76 65 53 48 45 48 40 27 28 29 51 30 29 27 17 18 27 22 19 21 21 16 14 17 17 13 11 9 11 11 8 6 5 2 360
120 119 115 110 103 103 99 95 86 71 71 62 63 52 47 50 37 25 20 41 35 31 24 25 14 21 21 19 14 14 15 18 18 16 12 9 5 5 6 8 7 2 0 357
Wind_Speed_850mb
18 8 9 21 31 22 27 25 20 10 29 33 28 12 13 24 13 15 12 7 10 11 13 16 17 19 22 24 27 31 34 37 39 41 42 44 45 45 49 52 55 53 55 57
17 17 19 18 25 33 29 26 26 17 18 24 8 31 12 11 6 5 8 6 10 14 18 20 23 26 28 31 33 35 36 39 40 41 41 42 45 47 48 53 56 54 53 56
21 21 16 8 18 20 12 9 8 14 6 27 22 6 10 2 3 4 12 7 13 18 20 23 25 27 31 33 34 35 36 36 36 37 37 40 43 46 47 53 56 58 61 62
16 22 19 16 5 6 21 11 7 14 9 8 13 14 14 18 19 10 12 16 19 21 22 24 27 29 31 33 33 33 34 32 32 34 37 40 42 46 52 54 54 58 62 63
14 18 23 16 11 13 25 20 13 18 16 15 15 24 21 14 10 11 16 20 22 24 28 31 31 31 33 34 32 31 30 29 30 33 36 41 46 50 52 50 49 51 56 62
17 15 10 26 15 22 27 16 20 19 16 13 11 15 7 11 15 17 19 21 25 29 30 29 28 31 33 31 29 27 27 29 29 34 38 40 41 43 43 46 50 52 58 57
17 8 14 18 13 6 21 10 21 27 20 13 15 13 10 16 19 20 22 25 28 28 28 28 30 28 28 27 25 27 26 29 33 34 36 35 42 47 50 53 57 60 68 64
12 7 8 18 16 3 21 27 25 25 17 13 14 14 17 20 22 25 28 30 29 29 29 29 25 25 26 26 21 23 29 32 34 35 33 39 42 47 50 54 55 70 55 55
3 10 28 41 43 37 33 29 23 20 19 18 18 21 22 23 23 25 26 27 27 27 28 25 26 25 24 20 23 27 29 31 34 35 34 32 41 53 53 43 47 57 62 61
19 24 28 42 42 36 31 28 24 23 23 23 24 28 29 26 25 25 26 25 28 28 27 28 26 23 22 24 25 27 29 30 33 28 34 32 40 46 48 44 47 49 56 57
28 28 35 34 34 33 31 27 26 24 23 23 24 28 31 27 26 27 27 28 28 29 28 30 25 23 23 23 25 26 28 30 32 27 27 33 45 48 44 37 39 48 51 51
12 38 23 34 32 29 29 28 25 23 22 21 24 28 29 32 29 30 32 32 27 28 29 27 26 24 26 26 24 24 26 28 28 28 27 32 45 46 37 38 37 46 43 42
35 39 44 41 34 29 30 27 25 25 23 22 23 27 25 27 37 36 36 32 28 31 31 30 28 27 31 30 26 23 24 25 26 24 26 30 40 41 52 44 46 52 44 43
50 51 44 40 38 32 30 26 24 22 21 22 23 24 27 30 34 40 41 39 37 39 37 37 33 35 35 35 34 25 19 19 22 24 23 27 32 34 36 43 49 57 57 51
34 34 42 42 36 31 24 21 21 21 20 21 21 23 29 34 34 33 37 38 41 43 41 43 40 40 39 37 36 32 22 21 23 24 20 25 31 30 35 38 46 49 60 63
40 40 40 36 31 26 22 20 20 19 20 21 21 23 25 27 29 32 36 36 39 40 40 42 42 41 40 37 32 44 28 25 23 23 21 23 25 28 28 38 42 43 41 56
39 37 34 32 29 24 21 20 19 19 19 21 22 23 23 26 27 32 35 34 31 32 37 42 44 41 41 36 39 40 40 29 29 25 24 22 22 25 28 29 35 43 41 35
22 26 26 28 28 25 21 20 19 19 20 19 20 24 24 25 28 27 29 33 30 30 40 43 45 42 43 37 39 35 47 46 40 35 36 29 25 22 26 28 27 31 34 33
26 27 29 28 25 23 21 20 19 19 18 18 21 24 24 22 25 26 23 33 38 39 43 43 43 41 43 43 38 34 39 43 39 44 48 40 35 30 28 28 29 30 30 29
31 31 30 29 26 23 22 20 18 19 20 22 22 23 25 24 27 28 25 31 37 35 36 41 39 39 43 46 45 38 38 37 40 40 40 51 50 43 42 37 33 29 27 28
30 28 28 27 26 23 21 18 15 16 16 23 27 25 30 27 27 31 29 25 36 37 36 38 39 42 44 44 45 43 41 40 41 44 44 44 50 54 50 51 45 40 34 30
27 25 25 25 23 22 20 18 16 15 15 17 23 24 24 31 28 22 34 32 30 39 41 40 39 44 49 45 43 50 46 43 42 44 48 45 45 48 49 61 58 53 44 39
25 24 22 21 20 20 19 16 15 15 18 18 20 28 27 29 29 24 24 37 32 40 34 46 40 44 43 42 44 46 51 51 46 47 47 47 45 45 46 50 57 58 57 53
24 22 22 20 19 16 14 14 15 15 16 19 22 23 23 21 21 28 25 35 36 37 38 52 51 46 40 34 42 43 46 48 51 49 49 49 47 46 46 48 47 53 54 57
23 21 19 16 14 12 11 8 10 11 13 16 18 19 21 22 28 29 28 31 34 30 27 40 43 44 38 38 37 39 42 47 49 48 48 52 52 51 51 51 48 50 49 52
19 17 15 13 13 10 7 7 8 9 9 11 15 17 18 19 19 23 24 33 26 29 28 30 37 35 35 37 37 38 40 45 52 52 49 49 51 53 57 57 56 54 52 53
19 19 17 15 12 9 9 10 10 10 10 11 11 14 16 16 19 21 26 25 26 27 28 29 32 35 36 36 38 38 38 45 50 52 51 49 53 54 56 57 60 59 57 58
Wind_Direction_850mb
129 203 136 266 201 212 231 229 244 300 189 206 201 193 195 134 153 138 134 90 56 31 14 360 351 344 342 334 332 326 321 317 312 311 310 308 302 295 291 290 289 287 283 279
171 152 107 271 203 181 215 202 217 137 129 147 186 199 159 160 153 202 157 63 2 351 345 339 337 334 328 326 322 318 315 311 311 308 305 296 296 298 294 291 285 284 285 285
182 198 194 229 181 191 195 229 236 228 12 133 138 193 170 173 95 355 49 358 333 330 329 327 325 321 317 312 313 313 309 306 303 301 299 299 299 297 295 290 293 293 291 290
152 151 196 70 37 339 172 138 206 87 65 81 108 85 70 59 68 49 341 328 324 323 319 315 311 311 309 309 309 308 306 303 303 307 305 302 303 300 299 299 299 299 296 293
151 171 102 129 129 159 156 113 44 102 111 115 118 121 102 79 30 347 331 325 322 318 315 313 313 309 307 310 309 307 307 308 310 306 308 310 305 303 303 304 300 299 297 292
148 179 158 107 87 56 114 115 121 97 75 39 267 163 79 352 340 331 327 323 319 313 314 311 308 308 309 308 309 305 301 297 309 311 306 305 303 305 303 300 299 301 305 297
131 172 97 102 109 188 213 137 79 90 73 56 51 79 349 338 333 330 327 324 320 318 314 309 312 311 307 303 297 291 300 311 301 301 302 306 315 326 312 307 313 304 305 298
147 137 111 143 143 22 124 115 100 84 65 63 44 25 358 344 336 332 329 328 325 322 316 317 318 311 302 297 300 320 307 305 308 311 310 327 322 314 318 306 297 311 314 306
80 88 80 86 102 100 102 102 90 85 64 50 44 21 4 349 342 338 335 331 329 324 321 318 312 309 309 320 322 307 315 314 315 318 325 320 316 314 329 319 312 308 318 320
104 104 101 101 102 105 103 99 90 78 63 47 37 19 8 358 349 345 343 341 335 329 323 321 321 321 317 310 311 313 314 316 324 335 339 321 321 331 335 330 326 325 319 316
95 120 109 103 107 110 104 97 89 79 66 50 36 26 17 8 2 354 348 344 343 339 335 332 336 335 329 322 318 314 312 322 331 331 321 325 338 360 355 346 336 326 326 324
160 167 124 129 120 115 106 96 84 78 65 49 37 30 26 21 11 4 355 348 349 348 342 346 346 343 328 325 318 314 317 323 326 329 322 329 340 3 17 12 7 357 345 350
117 135 127 130 124 117 109 99 90 79 66 53 43 34 30 26 20 16 10 7 7 359 5 5 356 354 348 347 339 327 319 318 325 338 327 329 344 352 356 5 13 12 16 2
120 125 128 136 127 122 111 101 91 81 68 58 49 40 33 28 22 16 13 15 17 17 15 11 10 5 0 358 351 345 333 321 323 328 327 327 348 346 351 5 359 18 21 16
136 131 133 131 130 125 114 107 93 78 65 54 43 33 30 28 24 21 14 15 20 14 12 10 20 8 6 359 1 1 351 340 331 339 336 338 344 331 349 359 3 10 11 15
129 127 132 134 132 128 117 105 93 77 60 48 38 28 28 30 20 23 21 19 22 10 12 10 14 10 4 6 9 7 3 2 340 337 349 349 343 343 343 346 353 355 360 11
135 139 135 133 132 120 107 96 88 79 61 47 37 23 31 32 26 23 18 19 24 14 16 13 12 12 12 21 32 3 13 11 8 357 349 352 353 348 345 346 344 352 358 15
130 135 138 137 130 120 105 91 85 74 61 52 32 26 26 24 24 25 17 13 23 20 18 15 14 17 16 28 38 5 12 23 17 9 9 5 1 354 355 355 350 348 347 355
132 128 129 129 125 117 103 93 86 75 64 44 28 28 27 29 30 31 29 9 20 20 15 14 15 20 20 26 35 16 20 12 13 17 15 16 16 10 1 357 358 354 351 349
120 123 123 121 116 110 101 95 91 78 62 43 33 35 36 41 41 39 46 11 21 25 16 11 19 24 21 26 28 22 20 18 17 19 14 20 24 20 14 9 2 356 351 347
130 130 124 118 111 102 98 96 92 76 56 40 37 41 38 48 50 27 37 30 20 30 19 17 24 31 27 32 27 26 22 22 20 18 17 15 12 21 18 18 14 6 357 352
134 125 122 119 113 103 96 93 88 78 65 51 41 51 41 46 64 41 11 31 26 42 19 21 32 43 29 26 30 31 25 24 22 22 20 18 15 11 9 16 21 18 11 3
131 127 125 122 117 110 99 91 84 77 71 63 50 40 51 28 38 42 31 30 38 44 26 19 39 55 41 12 26 28 27 27 23 20 20 19 13 12 10 6 10 16 17 14
131 129 123 125 120 112 94 85 79 71 68 56 53 47 41 52 31 36 45 37 49 39 7 11 26 40 38 26 19 22 21 24 28 25 19 14 14 9 10 10 5 8 10 9
125 127 129 130 123 115 112 103 83 75 63 56 52 46 45 30 35 27 41 46 23 40 26 7 24 24 30 24 23 18 16 17 19 19 19 18 14 11 9 9 5 7 6 2
127 122 119 114 119 118 94 82 77 76 65 53 48 45 48 40 27 28 29 51 30 29 27 17 18 27 22 19 21 21 16 14 17 17 13 11 9 11 11 8 6 5 2 360
120 119 115 110 103 103 99 95 86 71 71 62 63 52 47 50 37 25 20 41 35 31 24 25 14 21 21 19 14 14 15 18 18 16 12 9 5 5 6 8 7 2 0 357